Overview Statistics Trail Chart Weather Telemetry Raw packets
 

This is the latest recevied weather packets stored in our database for station/object EA1BVF-10. If no packets are shown the sender has not sent any weather packets the latest 10 day(s).

<< 11 12 13 14 15 16 >>
Time Temp. Humidity Pressure Rain* Wind** Luminosity Snow
1787926536 9.44° C 3% 1036.2 hPa - - - -
1787924736 8.89° C 6% 1035.8 hPa - - - -
1787922936 8.89° C 10% 1035.6 hPa - - - -
1787921136 8.89° C 15% 1035.6 hPa - - - -
1787919336 8.89° C 21% 1035.4 hPa - - - -
1787917536 8.33° C 27% 1034.9 hPa - - - -
1787915736 8.33° C 33% 1035 hPa - - - -
1787913936 8.33° C 40% 1034.6 hPa - - - -
1787912136 7.78° C 45% 1034.6 hPa - - - -
1787910337 7.78° C 52% 1034.2 hPa - - - -
1787908536 7.78° C 57% 1034.3 hPa - - - -
1787906736 7.78° C 59% 1033.7 hPa - - - -
1787904935 7.22° C 45% 1033.6 hPa - - - -
1787857969 8.89° C 92% 1029 hPa - - - -
1787856171 9.44° C 92% 1028.5 hPa - - - -
1787854371 9.44° C 92% 1028.2 hPa - - - -
1787852662 9.44° C 93% 1028.2 hPa - - - -
1787852569 9.44° C 93% 1028.2 hPa - - - -
1787850769 9.44° C 94% 1027.9 hPa - - - -
1787848969 9.44° C 94% 1027.8 hPa - - - -
1787847169 9.44° C 94% 1027.4 hPa - - - -
1787845368 9.44° C 93% 1027.4 hPa - - - -
1787843568 9.44° C 94% 1027 hPa - - - -
1787841768 10° C 94% 1027 hPa - - - -
1787839968 10° C 93% 1026.9 hPa - - - -

* Rain since midnight (hover to see other rain measurements)
** Current wind speed in m/s (hover to see current wind gust speed)